Location: Audinghen
(50.8518°N, 1.6129°E)
Time: 05:57:40
(UTC+00:00)

Okean 1 Rocket - Pass Details

Date: 07 August 2020
Orbit: 607 x 634 km, 82.5° (Epoch: 23 September)

Event Time Altitude Azimuth Distance (km) Brightness Sun altitude
Exits shadow 02:38:14 22° 239° (WSW) 1,326 4.2 -14.4°
Maximum altitude 02:40:19 35° 288° (WNW) 989 3.9 -14.2°
Drops below altitude 10° 02:44:21 10° 355° (N) 1,980 6.3 -13.8°
Sets 02:46:45 0° 5° (N) 2,893 7.4 -13.5°
